Time,TemperatureF,DewpointF,PressureIn,WindDirection,WindDirectionDegrees,WindSpeedMPH,WindSpeedGustMPH,Humidity,HourlyPrecipIn,Conditions,Clouds,dailyrainin,SoftwareType,DateUTC
2013-03-14 00:00:00,27.2,13.1,30.22,NW,315,0.7,3.1,55,0.00,,,0.00,WUHU216HW,2013-03-14 04:00:00,
2013-03-14 00:05:00,27.2,13.1,30.22,NW,315,2.2,3.1,55,0.00,,,0.00,WUHU216HW,2013-03-14 04:05:00,
2013-03-14 00:10:00,27.2,13.1,30.22,NNW,338,1.6,2.7,55,0.00,,,0.00,WUHU216HW,2013-03-14 04:10:00,
2013-03-14 00:15:00,27.0,13.3,30.22,West,270,1.1,4.7,56,0.00,,,0.00,WUHU216HW,2013-03-14 04:15:00,
2013-03-14 00:20:00,27.0,13.3,30.22,West,270,0.9,4.7,56,0.00,,,0.00,WUHU216HW,2013-03-14 04:20:00,
2013-03-14 00:25:00,27.0,13.3,30.22,NNW,338,1.1,2.5,56,0.00,,,0.00,WUHU216HW,2013-03-14 04:25:00,
2013-03-14 00:30:00,27.0,13.3,30.22,WSW,248,1.1,2.5,56,0.00,,,0.00,WUHU216HW,2013-03-14 04:30:00,
2013-03-14 00:35:00,27.0,12.9,30.22,NNW,338,1.8,2.5,55,0.00,,,0.00,WUHU216HW,2013-03-14 04:35:00,
2013-03-14 00:40:00,26.8,12.7,30.22,NNW,338,0.9,4.9,55,0.00,,,0.00,WUHU216HW,2013-03-14 04:40:00,
2013-03-14 00:45:00,26.8,13.2,30.22,West,270,2.0,4.9,56,0.00,,,0.00,WUHU216HW,2013-03-14 04:45:00,
2013-03-14 00:50:00,26.6,12.5,30.22,NNW,338,0.7,2.5,55,0.00,,,0.00,WUHU216HW,2013-03-14 04:50:00,
2013-03-14 00:55:00,26.6,12.5,30.22,WNW,293,1.3,2.7,55,0.00,,,0.00,WUHU216HW,2013-03-14 04:55:00,
2013-03-14 01:00:00,26.6,13.0,30.23,North,0,0.4,2.7,56,0.00,,,0.00,WUHU216HW,2013-03-14 05:00:00,
2013-03-14 01:05:00,26.6,12.5,30.23,NNW,338,0.9,4.9,55,0.00,,,0.00,WUHU216HW,2013-03-14 05:05:00,
2013-03-14 01:10:00,26.6,13.0,30.23,WSW,248,1.1,4.9,56,0.00,,,0.00,WUHU216HW,2013-03-14 05:10:00,
2013-03-14 01:15:00,26.6,13.0,30.22,West,270,2.9,2.9,56,0.00,,,0.00,WUHU216HW,2013-03-14 05:15:00,
2013-03-14 01:20:00,26.5,12.8,30.23,West,270,0.4,2.9,56,0.00,,,0.00,WUHU216HW,2013-03-14 05:20:00,
2013-03-14 01:25:00,26.5,13.1,30.23,WSW,248,0.7,2.9,57,0.00,,,0.00,WUHU216HW,2013-03-14 05:25:00,
2013-03-14 01:30:00,26.5,13.1,30.23,NNW,338,0.2,2.5,57,0.00,,,0.00,WUHU216HW,2013-03-14 05:30:00,
2013-03-14 01:35:00,26.3,13.1,30.23,NW,315,1.8,2.2,57,0.00,,,0.00,WUHU216HW,2013-03-14 05:35:00,
2013-03-14 01:40:00,26.3,13.4,30.23,West,270,1.1,2.5,58,0.00,,,0.00,WUHU216HW,2013-03-14 05:40:00,
2013-03-14 01:45:00,26.3,13.4,30.23,West,270,1.3,2.5,58,0.00,,,0.00,WUHU216HW,2013-03-14 05:45:00,
2013-03-14 01:50:00,26.3,13.4,30.23,West,270,1.8,2.7,58,0.00,,,0.00,WUHU216HW,2013-03-14 05:50:00,
2013-03-14 01:55:00,26.3,13.4,30.23,NNW,338,1.8,2.7,58,0.00,,,0.00,WUHU216HW,2013-03-14 05:55:00,
2013-03-14 02:00:00,26.3,13.4,30.24,WNW,293,0.4,2.5,58,0.00,,,0.00,WUHU216HW,2013-03-14 06:00:00,
2013-03-14 02:05:00,26.1,13.7,30.24,West,270,2.2,2.5,59,0.00,,,0.00,WUHU216HW,2013-03-14 06:05:00,
2013-03-14 02:10:00,25.9,13.5,30.24,WNW,293,1.3,2.2,59,0.00,,,0.00,WUHU216HW,2013-03-14 06:10:00,
2013-03-14 02:15:00,25.9,13.2,30.24,West,270,0.4,2.9,58,0.00,,,0.00,WUHU216HW,2013-03-14 06:15:00,
2013-03-14 02:20:00,25.9,13.5,30.24,WNW,293,0.9,2.9,59,0.00,,,0.00,WUHU216HW,2013-03-14 06:20:00,
2013-03-14 02:25:00,25.9,13.5,30.24,West,270,1.1,1.8,59,0.00,,,0.00,WUHU216HW,2013-03-14 06:25:00,
2013-03-14 02:30:00,25.9,13.5,30.24,West,270,0.7,1.8,59,0.00,,,0.00,WUHU216HW,2013-03-14 06:30:00,
2013-03-14 02:35:00,25.9,13.5,30.24,NNW,338,0.2,1.6,59,0.00,,,0.00,WUHU216HW,2013-03-14 06:35:00,
2013-03-14 02:40:00,25.9,13.5,30.24,NNW,338,0.2,1.1,59,0.00,,,0.00,WUHU216HW,2013-03-14 06:40:00,
2013-03-14 02:45:00,25.9,13.5,30.24,WNW,293,0.2,0.4,59,0.00,,,0.00,WUHU216HW,2013-03-14 06:45:00,
2013-03-14 02:50:00,25.9,13.5,30.24,NNW,338,0.0,0.9,59,0.00,,,0.00,WUHU216HW,2013-03-14 06:50:00,
2013-03-14 02:55:00,25.9,13.5,30.25,WNW,293,0.0,0.9,59,0.00,,,0.00,WUHU216HW,2013-03-14 06:55:00,
2013-03-14 03:00:00,25.9,13.5,30.25,WNW,293,0.2,1.1,59,0.00,,,0.00,WUHU216HW,2013-03-14 07:00:00,
2013-03-14 03:05:00,25.7,13.3,30.25,NW,315,0.0,1.1,59,0.00,,,0.00,WUHU216HW,2013-03-14 07:05:00,
2013-03-14 03:10:00,25.7,13.3,30.24,NNW,338,0.4,0.4,59,0.00,,,0.00,WUHU216HW,2013-03-14 07:10:00,
2013-03-14 03:15:00,25.7,13.3,30.24,WSW,248,0.2,2.0,59,0.00,,,0.00,WUHU216HW,2013-03-14 07:15:00,
2013-03-14 03:20:00,25.6,13.2,30.25,WSW,248,0.4,2.0,59,0.00,,,0.00,WUHU216HW,2013-03-14 07:20:00,
2013-03-14 03:25:00,25.6,13.2,30.25,West,270,1.6,1.6,59,0.00,,,0.00,WUHU216HW,2013-03-14 07:25:00,
2013-03-14 03:30:00,25.6,13.2,30.25,West,270,0.2,1.6,59,0.00,,,0.00,WUHU216HW,2013-03-14 07:30:00,
2013-03-14 03:35:00,25.4,13.1,30.25,West,270,0.9,0.9,59,0.00,,,0.00,WUHU216HW,2013-03-14 07:35:00,
2013-03-14 03:40:00,25.4,13.4,30.25,West,270,0.4,0.9,60,0.00,,,0.00,WUHU216HW,2013-03-14 07:40:00,
2013-03-14 03:45:00,25.4,13.1,30.25,NW,315,0.4,1.3,59,0.00,,,0.00,WUHU216HW,2013-03-14 07:45:00,
2013-03-14 03:50:00,25.2,12.9,30.25,WNW,293,1.1,1.3,59,0.00,,,0.00,WUHU216HW,2013-03-14 07:50:00,
2013-03-14 03:55:00,25.0,13.2,30.25,WSW,248,1.1,1.1,60,0.00,,,0.00,WUHU216HW,2013-03-14 07:55:00,
2013-03-14 04:00:00,25.2,13.3,30.25,North,0,0.4,1.8,60,0.00,,,0.00,WUHU216HW,2013-03-14 08:00:00,
2013-03-14 04:05:00,25.2,13.3,30.25,NNE,23,0.4,1.8,60,0.00,,,0.00,WUHU216HW,2013-03-14 08:05:00,
2013-03-14 04:10:00,25.2,13.3,30.25,WSW,248,1.1,1.8,60,0.00,,,0.00,WUHU216HW,2013-03-14 08:10:00,
2013-03-14 04:15:00,25.2,13.3,30.25,NW,315,0.4,1.8,60,0.00,,,0.00,WUHU216HW,2013-03-14 08:15:00,
2013-03-14 04:20:00,25.2,13.3,30.25,WSW,248,0.4,0.7,60,0.00,,,0.00,WUHU216HW,2013-03-14 08:20:00,
2013-03-14 04:25:00,25.2,13.3,30.24,NW,315,0.2,0.7,60,0.00,,,0.00,WUHU216HW,2013-03-14 08:25:00,
2013-03-14 04:30:00,25.0,13.5,30.25,NNW,338,0.2,1.8,61,0.00,,,0.00,WUHU216HW,2013-03-14 08:30:00,
2013-03-14 04:35:00,25.0,13.5,30.25,WNW,293,0.4,1.8,61,0.00,,,0.00,WUHU216HW,2013-03-14 08:35:00,
2013-03-14 04:40:00,24.8,13.3,30.25,NW,315,0.4,3.4,61,0.00,,,0.00,WUHU216HW,2013-03-14 08:40:00,
2013-03-14 04:45:00,24.8,13.3,30.25,SW,225,0.9,3.4,61,0.00,,,0.00,WUHU216HW,2013-03-14 08:45:00,
2013-03-14 04:50:00,24.8,13.3,30.25,West,270,2.2,2.2,61,0.00,,,0.00,WUHU216HW,2013-03-14 08:50:00,
2013-03-14 04:55:00,24.7,13.5,30.25,WNW,293,0.2,2.2,62,0.00,,,0.00,WUHU216HW,2013-03-14 08:55:00,
2013-03-14 05:00:00,24.7,13.5,30.25,West,270,0.4,1.1,62,0.00,,,0.00,WUHU216HW,2013-03-14 09:00:00,
2013-03-14 05:05:00,24.8,13.7,30.25,NNW,338,0.2,1.1,62,0.00,,,0.00,WUHU216HW,2013-03-14 09:05:00,
2013-03-14 05:10:00,24.7,13.5,30.25,West,270,0.4,1.3,62,0.00,,,0.00,WUHU216HW,2013-03-14 09:10:00,
2013-03-14 05:15:00,24.7,13.8,30.25,NNW,338,0.4,1.3,63,0.00,,,0.00,WUHU216HW,2013-03-14 09:15:00,
2013-03-14 05:20:00,24.7,14.1,30.25,NW,315,0.4,1.1,64,0.00,,,0.00,WUHU216HW,2013-03-14 09:20:00,
2013-03-14 05:25:00,24.5,14.0,30.25,NNW,338,0.4,1.1,64,0.00,,,0.00,WUHU216HW,2013-03-14 09:25:00,
2013-03-14 05:30:00,24.7,14.1,30.25,WSW,248,2.5,2.5,64,0.00,,,0.00,WUHU216HW,2013-03-14 09:30:00,
2013-03-14 05:35:00,24.7,14.1,30.25,North,0,0.4,2.5,64,0.00,,,0.00,WUHU216HW,2013-03-14 09:35:00,
2013-03-14 05:40:00,24.7,14.1,30.25,NW,315,0.0,0.4,64,0.00,,,0.00,WUHU216HW,2013-03-14 09:40:00,
2013-03-14 05:45:00,24.5,14.0,30.25,West,270,1.8,1.8,64,0.00,,,0.00,WUHU216HW,2013-03-14 09:45:00,
2013-03-14 05:50:00,24.5,14.3,30.25,WSW,248,0.9,1.8,65,0.00,,,0.00,WUHU216HW,2013-03-14 09:50:00,
2013-03-14 05:55:00,24.3,14.1,30.25,WNW,293,0.0,1.6,65,0.00,,,0.00,WUHU216HW,2013-03-14 09:55:00,
2013-03-14 06:00:00,24.3,14.1,30.25,NW,315,0.7,1.8,65,0.00,,,0.00,WUHU216HW,2013-03-14 10:00:00,
2013-03-14 06:05:00,24.3,14.1,30.25,West,270,1.1,1.8,65,0.00,,,0.00,WUHU216HW,2013-03-14 10:05:00,
2013-03-14 06:10:00,24.3,14.1,30.25,NW,315,0.0,1.1,65,0.00,,,0.00,WUHU216HW,2013-03-14 10:10:00,
2013-03-14 06:15:00,24.3,14.1,30.25,NW,315,1.6,1.6,65,0.00,,,0.00,WUHU216HW,2013-03-14 10:15:00,
2013-03-14 06:20:00,24.3,14.5,30.25,SSW,203,0.4,1.6,66,0.00,,,0.00,WUHU216HW,2013-03-14 10:20:00,
2013-03-14 06:25:00,24.1,14.3,30.26,West,270,0.2,1.6,66,0.00,,,0.00,WUHU216HW,2013-03-14 10:25:00,
2013-03-14 06:30:00,24.3,14.5,30.25,NW,315,0.0,1.3,66,0.00,,,0.00,WUHU216HW,2013-03-14 10:30:00,
2013-03-14 06:35:00,24.3,14.5,30.25,West,270,0.9,0.9,66,0.00,,,0.00,WUHU216HW,2013-03-14 10:35:00,
2013-03-14 06:40:00,24.3,14.5,30.26,NW,315,0.2,0.9,66,0.00,,,0.00,WUHU216HW,2013-03-14 10:40:00,
2013-03-14 06:45:00,24.3,14.5,30.25,WNW,293,0.0,0.4,66,0.00,,,0.00,WUHU216HW,2013-03-14 10:45:00,
2013-03-14 06:50:00,24.1,14.3,30.25,West,270,0.4,0.7,66,0.00,,,0.00,WUHU216HW,2013-03-14 10:50:00,
2013-03-14 06:55:00,24.1,14.3,30.26,NNW,338,0.2,1.1,66,0.00,,,0.00,WUHU216HW,2013-03-14 10:55:00,
2013-03-14 07:00:00,24.1,14.3,30.25,NNW,338,0.2,1.1,66,0.00,,,0.00,WUHU216HW,2013-03-14 11:00:00,
2013-03-14 07:05:00,23.9,14.1,30.26,West,270,0.4,0.7,66,0.00,,,0.00,WUHU216HW,2013-03-14 11:05:00,
2013-03-14 07:10:00,23.9,14.1,30.26,West,270,2.0,2.0,66,0.00,,,0.00,WUHU216HW,2013-03-14 11:10:00,
2013-03-14 07:15:00,24.1,14.3,30.26,SW,225,0.2,2.0,66,0.00,,,0.00,WUHU216HW,2013-03-14 11:15:00,
2013-03-14 07:20:00,24.1,14.3,30.26,NNW,338,0.0,0.9,66,0.00,,,0.00,WUHU216HW,2013-03-14 11:20:00,
2013-03-14 07:25:00,24.1,14.3,30.26,WNW,293,0.0,0.9,66,0.00,,,0.00,WUHU216HW,2013-03-14 11:25:00,
2013-03-14 07:30:00,24.1,14.3,30.26,WSW,248,0.2,0.4,66,0.00,,,0.00,WUHU216HW,2013-03-14 11:30:00,
2013-03-14 07:35:00,24.1,14.3,30.26,West,270,0.4,0.4,66,0.00,,,0.00,WUHU216HW,2013-03-14 11:35:00,
2013-03-14 07:40:00,24.1,14.3,30.26,WNW,293,1.1,1.1,66,0.00,,,0.00,WUHU216HW,2013-03-14 11:40:00,
2013-03-14 07:45:00,24.1,14.3,30.26,West,270,0.0,1.1,66,0.00,,,0.00,WUHU216HW,2013-03-14 11:45:00,
2013-03-14 07:50:00,24.1,14.3,30.27,WSW,248,0.4,0.9,66,0.00,,,0.00,WUHU216HW,2013-03-14 11:50:00,
2013-03-14 07:55:00,24.1,14.7,30.27,West,270,0.0,0.7,67,0.00,,,0.00,WUHU216HW,2013-03-14 11:55:00,
2013-03-14 08:00:00,24.1,14.7,30.27,WSW,248,0.2,0.9,67,0.00,,,0.00,WUHU216HW,2013-03-14 12:00:00,
2013-03-14 08:05:00,24.1,14.7,30.27,West,270,0.2,0.9,67,0.00,,,0.00,WUHU216HW,2013-03-14 12:05:00,
2013-03-14 08:10:00,24.1,14.7,30.27,West,270,0.4,0.4,67,0.00,,,0.00,WUHU216HW,2013-03-14 12:10:00,
2013-03-14 08:15:00,24.1,14.7,30.27,WSW,248,0.4,0.9,67,0.00,,,0.00,WUHU216HW,2013-03-14 12:15:00,
2013-03-14 08:20:00,24.1,14.7,30.27,West,270,0.4,0.9,67,0.00,,,0.00,WUHU216HW,2013-03-14 12:20:00,
2013-03-14 08:25:00,24.1,14.7,30.27,West,270,0.4,0.9,67,0.00,,,0.00,WUHU216HW,2013-03-14 12:25:00,
2013-03-14 08:30:00,24.1,14.7,30.28,WSW,248,0.2,1.1,67,0.00,,,0.00,WUHU216HW,2013-03-14 12:30:00,
2013-03-14 08:35:00,24.1,15.0,30.28,WSW,248,0.2,1.1,68,0.00,,,0.00,WUHU216HW,2013-03-14 12:35:00,
2013-03-14 08:40:00,24.3,15.2,30.28,West,270,0.2,1.1,68,0.00,,,0.00,WUHU216HW,2013-03-14 12:40:00,
2013-03-14 08:45:00,24.5,15.4,30.28,WSW,248,0.2,3.4,68,0.00,,,0.00,WUHU216HW,2013-03-14 12:45:00,
2013-03-14 08:50:00,24.8,15.7,30.28,West,270,0.9,3.4,68,0.00,,,0.00,WUHU216HW,2013-03-14 12:50:00,
2013-03-14 08:55:00,25.4,16.2,30.28,West,270,1.6,2.9,68,0.00,,,0.00,WUHU216HW,2013-03-14 12:55:00,
2013-03-14 09:00:00,25.7,16.2,30.28,WSW,248,2.5,2.9,67,0.00,,,0.00,WUHU216HW,2013-03-14 13:00:00,
2013-03-14 09:05:00,26.1,16.6,30.28,NW,315,0.4,2.5,67,0.00,,,0.00,WUHU216HW,2013-03-14 13:05:00,
2013-03-14 09:10:00,26.3,16.4,30.29,NNW,338,0.4,1.8,66,0.00,,,0.00,WUHU216HW,2013-03-14 13:10:00,
2013-03-14 09:15:00,26.5,16.6,30.28,WSW,248,1.1,1.8,66,0.00,,,0.00,WUHU216HW,2013-03-14 13:15:00,
2013-03-14 09:20:00,26.6,16.7,30.29,NW,315,2.0,2.0,66,0.00,,,0.00,WUHU216HW,2013-03-14 13:20:00,
2013-03-14 09:25:00,27.0,17.1,30.28,West,270,1.3,2.0,66,0.00,,,0.00,WUHU216HW,2013-03-14 13:25:00,
2013-03-14 09:30:00,27.5,17.3,30.29,West,270,1.8,1.8,65,0.00,,,0.00,WUHU216HW,2013-03-14 13:30:00,
2013-03-14 09:35:00,28.3,18.0,30.29,West,270,0.4,1.8,65,0.00,,,0.00,WUHU216HW,2013-03-14 13:35:00,
2013-03-14 09:40:00,28.8,18.2,30.29,West,270,2.5,2.7,64,0.00,,,0.00,WUHU216HW,2013-03-14 13:40:00,
2013-03-14 09:45:00,28.8,17.8,30.29,WNW,293,1.3,3.4,63,0.00,,,0.00,WUHU216HW,2013-03-14 13:45:00,
2013-03-14 09:50:00,29.2,17.7,30.29,WNW,293,2.9,3.4,62,0.00,,,0.00,WUHU216HW,2013-03-14 13:50:00,
2013-03-14 09:55:00,29.3,17.9,30.29,West,270,3.6,3.6,62,0.00,,,0.00,WUHU216HW,2013-03-14 13:55:00,
2013-03-14 10:00:00,29.5,18.1,30.29,NW,315,1.8,3.6,62,0.00,,,0.00,WUHU216HW,2013-03-14 14:00:00,
2013-03-14 10:05:00,29.9,17.6,30.29,NNW,338,0.9,1.8,60,0.00,,,0.00,WUHU216HW,2013-03-14 14:05:00,
2013-03-14 10:10:00,30.1,17.5,30.30,NE,45,1.3,1.8,59,0.00,,,0.00,WUHU216HW,2013-03-14 14:10:00,
2013-03-14 10:15:00,30.1,17.5,30.29,NNW,338,1.6,4.0,59,0.00,,,0.00,WUHU216HW,2013-03-14 14:15:00,
2013-03-14 10:20:00,30.4,17.7,30.29,WSW,248,2.0,4.0,59,0.00,,,0.00,WUHU216HW,2013-03-14 14:20:00,
2013-03-14 10:25:00,31.0,17.9,30.29,WNW,293,1.3,2.7,58,0.00,,,0.00,WUHU216HW,2013-03-14 14:25:00,
2013-03-14 10:30:00,30.8,17.3,30.29,SW,225,0.4,3.1,57,0.00,,,0.00,WUHU216HW,2013-03-14 14:30:00,
2013-03-14 10:35:00,30.8,16.8,30.29,NNW,338,1.6,3.1,56,0.00,,,0.00,WUHU216HW,2013-03-14 14:35:00,
2013-03-14 10:40:00,30.8,17.3,30.29,North,0,4.7,4.7,57,0.00,,,0.00,WUHU216HW,2013-03-14 14:40:00,
2013-03-14 10:45:00,31.1,17.2,30.29,NNW,338,0.9,4.7,56,0.00,,,0.00,WUHU216HW,2013-03-14 14:45:00,
2013-03-14 10:50:00,31.3,17.8,30.29,WSW,248,1.6,4.0,57,0.00,,,0.00,WUHU216HW,2013-03-14 14:50:00,
2013-03-14 10:55:00,31.9,17.5,30.29,NW,315,0.9,4.0,55,0.00,,,0.00,WUHU216HW,2013-03-14 14:55:00,
2013-03-14 11:00:00,31.7,17.3,30.29,SSW,203,2.7,4.9,55,0.00,,,0.00,WUHU216HW,2013-03-14 15:00:00,
2013-03-14 11:05:00,32.0,17.2,30.29,North,0,1.1,4.9,54,0.00,,,0.00,WUHU216HW,2013-03-14 15:05:00,
2013-03-14 11:10:00,32.0,18.1,30.29,SW,225,1.8,3.4,56,0.00,,,0.00,WUHU216HW,2013-03-14 15:10:00,
2013-03-14 11:15:00,32.6,18.1,30.29,NNW,338,1.3,3.8,55,0.00,,,0.00,WUHU216HW,2013-03-14 15:15:00,
2013-03-14 11:20:00,32.8,17.8,30.29,NNW,338,3.1,3.8,54,0.00,,,0.00,WUHU216HW,2013-03-14 15:20:00,
2013-03-14 11:25:00,33.3,19.2,30.29,WNW,293,0.4,3.6,56,0.00,,,0.00,WUHU216HW,2013-03-14 15:25:00,
2013-03-14 11:30:00,33.8,18.4,30.29,West,270,2.5,2.7,53,0.00,,,0.00,WUHU216HW,2013-03-14 15:30:00,
2013-03-14 11:35:00,33.8,18.4,30.29,West,270,2.5,3.4,53,0.00,,,0.00,WUHU216HW,2013-03-14 15:35:00,
2013-03-14 11:40:00,33.7,17.8,30.28,WSW,248,5.8,5.8,52,0.00,,,0.00,WUHU216HW,2013-03-14 15:40:00,
2013-03-14 11:45:00,33.7,18.3,30.28,NW,315,0.7,5.8,53,0.00,,,0.00,WUHU216HW,2013-03-14 15:45:00,
2013-03-14 11:50:00,33.8,18.0,30.28,WSW,248,0.9,4.3,52,0.00,,,0.00,WUHU216HW,2013-03-14 15:50:00,
2013-03-14 11:55:00,33.8,18.0,30.28,NNW,338,1.1,2.9,52,0.00,,,0.00,WUHU216HW,2013-03-14 15:55:00,
2013-03-14 12:00:00,33.8,18.8,30.28,WSW,248,1.1,3.1,54,0.00,,,0.00,WUHU216HW,2013-03-14 16:00:00,
2013-03-14 12:05:00,33.8,17.1,30.28,WSW,248,3.8,3.8,50,0.00,,,0.00,WUHU216HW,2013-03-14 16:05:00,
2013-03-14 12:10:00,33.7,17.4,30.28,North,0,2.2,3.8,51,0.00,,,0.00,WUHU216HW,2013-03-14 16:10:00,
2013-03-14 12:15:00,33.8,18.4,30.28,WNW,293,4.0,4.0,53,0.00,,,0.00,WUHU216HW,2013-03-14 16:15:00,
2013-03-14 12:20:00,34.2,18.4,30.28,West,270,1.1,4.0,52,0.00,,,0.00,WUHU216HW,2013-03-14 16:20:00,
2013-03-14 12:25:00,34.2,18.4,30.28,South,180,4.3,4.5,52,0.00,,,0.00,WUHU216HW,2013-03-14 16:25:00,
2013-03-14 12:30:00,34.4,18.1,30.28,North,0,4.0,4.5,51,0.00,,,0.00,WUHU216HW,2013-03-14 16:30:00,
2013-03-14 12:35:00,34.4,18.1,30.27,NNW,338,1.8,4.5,51,0.00,,,0.00,WUHU216HW,2013-03-14 16:35:00,
2013-03-14 12:40:00,34.4,18.1,30.27,WSW,248,3.4,3.4,51,0.00,,,0.00,WUHU216HW,2013-03-14 16:40:00,
2013-03-14 12:45:00,34.6,17.8,30.27,SSW,203,2.5,3.8,50,0.00,,,0.00,WUHU216HW,2013-03-14 16:45:00,
2013-03-14 12:50:00,34.4,18.1,30.27,North,0,0.4,4.0,51,0.00,,,0.00,WUHU216HW,2013-03-14 16:50:00,
2013-03-14 12:55:00,34.9,18.6,30.27,North,0,3.6,4.0,51,0.00,,,0.00,WUHU216HW,2013-03-14 16:55:00,
2013-03-14 13:00:00,34.7,18.9,30.27,WSW,248,3.4,3.8,52,0.00,,,0.00,WUHU216HW,2013-03-14 17:00:00,
2013-03-14 13:05:00,35.3,19.5,30.27,North,0,0.9,3.8,52,0.00,,,0.00,WUHU216HW,2013-03-14 17:05:00,
2013-03-14 13:10:00,35.8,19.9,30.27,NW,315,1.8,3.8,52,0.00,,,0.00,WUHU216HW,2013-03-14 17:10:00,
2013-03-14 13:15:00,36.0,19.3,30.27,NW,315,4.3,4.3,50,0.00,,,0.00,WUHU216HW,2013-03-14 17:15:00,
2013-03-14 13:20:00,36.0,18.7,30.26,NNE,23,1.8,4.5,49,0.00,,,0.00,WUHU216HW,2013-03-14 17:20:00,
2013-03-14 13:25:00,35.8,18.5,30.26,NW,315,3.4,4.5,49,0.00,,,0.00,WUHU216HW,2013-03-14 17:25:00,
2013-03-14 13:30:00,35.6,18.4,30.26,West,270,0.7,3.4,49,0.00,,,0.00,WUHU216HW,2013-03-14 17:30:00,
2013-03-14 13:35:00,36.0,18.7,30.26,WNW,293,4.0,4.3,49,0.00,,,0.00,WUHU216HW,2013-03-14 17:35:00,
2013-03-14 13:40:00,36.4,19.5,30.26,West,270,0.4,4.3,50,0.00,,,0.00,WUHU216HW,2013-03-14 17:40:00,
2013-03-14 13:45:00,36.5,18.6,30.26,NNW,338,1.1,3.1,48,0.00,,,0.00,WUHU216HW,2013-03-14 17:45:00,
2013-03-14 13:50:00,36.2,18.9,30.26,SW,225,3.1,4.5,49,0.00,,,0.00,WUHU216HW,2013-03-14 17:50:00,
2013-03-14 13:55:00,36.7,18.8,30.25,West,270,4.3,4.5,48,0.00,,,0.00,WUHU216HW,2013-03-14 17:55:00,
2013-03-14 14:00:00,37.1,20.2,30.25,WSW,248,0.9,4.3,50,0.00,,,0.00,WUHU216HW,2013-03-14 18:00:00,
2013-03-14 14:05:00,37.1,19.7,30.25,West,270,1.8,5.1,49,0.00,,,0.00,WUHU216HW,2013-03-14 18:05:00,
2013-03-14 14:10:00,37.1,18.6,30.25,West,270,2.7,5.1,47,0.00,,,0.00,WUHU216HW,2013-03-14 18:10:00,
2013-03-14 14:15:00,37.1,18.6,30.25,West,270,2.7,4.0,47,0.00,,,0.00,WUHU216HW,2013-03-14 18:15:00,
2013-03-14 14:20:00,37.1,18.1,30.25,North,0,3.4,3.4,46,0.00,,,0.00,WUHU216HW,2013-03-14 18:20:00,
2013-03-14 14:25:00,37.1,17.6,30.24,ESE,113,0.2,4.5,45,0.00,,,0.00,WUHU216HW,2013-03-14 18:25:00,
2013-03-14 14:30:00,36.9,17.5,30.24,NNE,23,0.2,4.5,45,0.00,,,0.00,WUHU216HW,2013-03-14 18:30:00,
2013-03-14 14:35:00,36.7,18.3,30.24,NNW,338,0.7,4.0,47,0.00,,,0.00,WUHU216HW,2013-03-14 18:35:00,
2013-03-14 14:40:00,37.4,19.4,30.24,NNE,23,0.9,2.5,48,0.00,,,0.00,WUHU216HW,2013-03-14 18:40:00,
2013-03-14 14:45:00,37.8,19.8,30.23,SSE,158,1.8,2.9,48,0.00,,,0.00,WUHU216HW,2013-03-14 18:45:00,
2013-03-14 14:50:00,38.0,19.4,30.23,West,270,4.0,4.0,47,0.00,,,0.00,WUHU216HW,2013-03-14 18:50:00,
2013-03-14 14:55:00,38.2,19.6,30.23,WNW,293,2.2,4.0,47,0.00,,,0.00,WUHU216HW,2013-03-14 18:55:00,
2013-03-14 15:00:00,38.2,19.6,30.23,WSW,248,2.9,4.0,47,0.00,,,0.00,WUHU216HW,2013-03-14 19:00:00,
2013-03-14 15:05:00,38.5,19.9,30.23,WNW,293,0.4,2.9,47,0.00,,,0.00,WUHU216HW,2013-03-14 19:05:00,
2013-03-14 15:10:00,38.5,18.9,30.23,SW,225,3.1,3.6,45,0.00,,,0.00,WUHU216HW,2013-03-14 19:10:00,
2013-03-14 15:15:00,38.5,18.9,30.22,SSE,158,1.8,3.8,45,0.00,,,0.00,WUHU216HW,2013-03-14 19:15:00,
2013-03-14 15:20:00,38.5,19.5,30.22,West,270,1.8,3.8,46,0.00,,,0.00,WUHU216HW,2013-03-14 19:20:00,
2013-03-14 15:25:00,38.5,18.9,30.22,NW,315,0.4,3.1,45,0.00,,,0.00,WUHU216HW,2013-03-14 19:25:00,
2013-03-14 15:30:00,38.9,19.2,30.22,NW,315,4.0,4.0,45,0.00,,,0.00,WUHU216HW,2013-03-14 19:30:00,
2013-03-14 15:35:00,38.7,18.6,30.22,WNW,293,1.1,4.0,44,0.00,,,0.00,WUHU216HW,2013-03-14 19:35:00,
2013-03-14 15:40:00,38.9,19.2,30.22,WSW,248,2.5,2.5,45,0.00,,,0.00,WUHU216HW,2013-03-14 19:40:00,
2013-03-14 15:45:00,38.9,18.7,30.22,SSW,203,0.9,2.5,44,0.00,,,0.00,WUHU216HW,2013-03-14 19:45:00,
2013-03-14 15:50:00,38.9,17.6,30.21,NW,315,2.0,2.5,42,0.00,,,0.00,WUHU216HW,2013-03-14 19:50:00,
2013-03-14 15:55:00,39.1,17.8,30.22,NW,315,1.3,2.5,42,0.00,,,0.00,WUHU216HW,2013-03-14 19:55:00,
2013-03-14 16:00:00,39.2,17.5,30.22,NNW,338,2.2,2.9,41,0.00,,,0.00,WUHU216HW,2013-03-14 20:00:00,
2013-03-14 16:05:00,39.2,18.0,30.22,WSW,248,1.3,2.9,42,0.00,,,0.00,WUHU216HW,2013-03-14 20:05:00,
2013-03-14 16:10:00,39.2,18.5,30.21,West,270,2.5,2.9,43,0.00,,,0.00,WUHU216HW,2013-03-14 20:10:00,
2013-03-14 16:15:00,39.4,18.6,30.21,WSW,248,2.0,3.4,43,0.00,,,0.00,WUHU216HW,2013-03-14 20:15:00,
2013-03-14 16:20:00,39.2,17.5,30.21,West,270,2.5,3.4,41,0.00,,,0.00,WUHU216HW,2013-03-14 20:20:00,
2013-03-14 16:25:00,39.2,18.0,30.21,NW,315,2.0,3.1,42,0.00,,,0.00,WUHU216HW,2013-03-14 20:25:00,
2013-03-14 16:30:00,39.4,18.6,30.21,North,0,1.1,3.1,43,0.00,,,0.00,WUHU216HW,2013-03-14 20:30:00,
2013-03-14 16:35:00,39.4,17.7,30.21,WSW,248,1.1,2.9,41,0.00,,,0.00,WUHU216HW,2013-03-14 20:35:00,
2013-03-14 16:40:00,39.6,18.3,30.21,West,270,3.4,3.4,42,0.00,,,0.00,WUHU216HW,2013-03-14 20:40:00,
2013-03-14 16:45:00,39.4,18.6,30.21,WSW,248,4.7,4.7,43,0.00,,,0.00,WUHU216HW,2013-03-14 20:45:00,
2013-03-14 16:50:00,39.2,18.5,30.20,SSW,203,1.1,4.7,43,0.00,,,0.00,WUHU216HW,2013-03-14 20:50:00,
2013-03-14 16:55:00,39.2,18.0,30.21,WSW,248,2.5,4.0,42,0.00,,,0.00,WUHU216HW,2013-03-14 20:55:00,
2013-03-14 17:00:00,39.2,17.5,30.21,West,270,1.6,4.7,41,0.00,,,0.00,WUHU216HW,2013-03-14 21:00:00,
2013-03-14 17:05:00,39.2,18.0,30.21,WSW,248,0.7,4.7,42,0.00,,,0.00,WUHU216HW,2013-03-14 21:05:00,
2013-03-14 17:10:00,39.2,18.5,30.20,West,270,1.8,4.0,43,0.00,,,0.00,WUHU216HW,2013-03-14 21:10:00,
2013-03-14 17:15:00,39.2,18.0,30.20,WSW,248,2.0,5.4,42,0.00,,,0.00,WUHU216HW,2013-03-14 21:15:00,
2013-03-14 17:20:00,39.1,17.3,30.20,NNW,338,0.9,5.4,41,0.00,,,0.00,WUHU216HW,2013-03-14 21:20:00,
2013-03-14 17:25:00,39.2,17.5,30.20,SSW,203,2.2,4.7,41,0.00,,,0.00,WUHU216HW,2013-03-14 21:25:00,
2013-03-14 17:30:00,39.2,18.0,30.20,NW,315,2.5,3.4,42,0.00,,,0.00,WUHU216HW,2013-03-14 21:30:00,
2013-03-14 17:35:00,39.2,18.5,30.20,SW,225,3.6,3.6,43,0.00,,,0.00,WUHU216HW,2013-03-14 21:35:00,
2013-03-14 17:40:00,39.1,18.4,30.20,WSW,248,3.4,3.6,43,0.00,,,0.00,WUHU216HW,2013-03-14 21:40:00,
2013-03-14 17:45:00,39.1,18.4,30.20,WNW,293,0.4,3.4,43,0.00,,,0.00,WUHU216HW,2013-03-14 21:45:00,
2013-03-14 17:50:00,39.1,18.8,30.20,NNW,338,0.4,2.2,44,0.00,,,0.00,WUHU216HW,2013-03-14 21:50:00,
2013-03-14 17:55:00,39.2,19.5,30.20,West,270,5.1,5.1,45,0.00,,,0.00,WUHU216HW,2013-03-14 21:55:00,
2013-03-14 18:00:00,39.1,19.4,30.20,WSW,248,1.8,5.1,45,0.00,,,0.00,WUHU216HW,2013-03-14 22:00:00,
2013-03-14 18:05:00,38.9,19.2,30.19,WNW,293,1.8,3.4,45,0.00,,,0.00,WUHU216HW,2013-03-14 22:05:00,
2013-03-14 18:10:00,38.7,19.1,30.19,West,270,2.5,3.4,45,0.00,,,0.00,WUHU216HW,2013-03-14 22:10:00,
2013-03-14 18:15:00,38.7,19.1,30.19,WSW,248,1.8,3.4,45,0.00,,,0.00,WUHU216HW,2013-03-14 22:15:00,
2013-03-14 18:20:00,38.5,18.9,30.19,ENE,68,1.6,3.4,45,0.00,,,0.00,WUHU216HW,2013-03-14 22:20:00,
2013-03-14 18:25:00,38.5,18.9,30.19,NNW,338,2.9,3.1,45,0.00,,,0.00,WUHU216HW,2013-03-14 22:25:00,
2013-03-14 18:30:00,38.5,18.9,30.18,NW,315,1.1,3.1,45,0.00,,,0.00,WUHU216HW,2013-03-14 22:30:00,
2013-03-14 18:35:00,38.2,19.1,30.18,NW,315,1.3,2.9,46,0.00,,,0.00,WUHU216HW,2013-03-14 22:35:00,
2013-03-14 18:40:00,38.0,18.9,30.18,West,270,0.4,2.9,46,0.00,,,0.00,WUHU216HW,2013-03-14 22:40:00,
2013-03-14 18:45:00,37.8,18.7,30.18,North,0,1.1,2.9,46,0.00,,,0.00,WUHU216HW,2013-03-14 22:45:00,
2013-03-14 18:50:00,37.8,19.3,30.18,NNW,338,2.0,2.9,47,0.00,,,0.00,WUHU216HW,2013-03-14 22:50:00,
2013-03-14 18:55:00,37.8,19.3,30.18,West,270,0.0,2.0,47,0.00,,,0.00,WUHU216HW,2013-03-14 22:55:00,
2013-03-14 19:00:00,37.8,19.3,30.18,West,270,1.1,2.0,47,0.00,,,0.00,WUHU216HW,2013-03-14 23:00:00,
2013-03-14 19:05:00,37.6,19.6,30.17,WNW,293,1.1,1.8,48,0.00,,,0.00,WUHU216HW,2013-03-14 23:05:00,
2013-03-14 19:10:00,37.6,19.1,30.18,WSW,248,1.3,1.6,47,0.00,,,0.00,WUHU216HW,2013-03-14 23:10:00,
2013-03-14 19:15:00,37.4,19.4,30.17,WNW,293,0.4,3.1,48,0.00,,,0.00,WUHU216HW,2013-03-14 23:15:00,
2013-03-14 19:20:00,37.3,19.4,30.17,NNW,338,0.0,3.1,48,0.00,,,0.00,WUHU216HW,2013-03-14 23:20:00,
2013-03-14 19:25:00,37.1,19.2,30.18,WSW,248,0.4,3.4,48,0.00,,,0.00,WUHU216HW,2013-03-14 23:25:00,
2013-03-14 19:30:00,37.1,19.2,30.18,West,270,0.2,3.4,48,0.00,,,0.00,WUHU216HW,2013-03-14 23:30:00,
2013-03-14 19:35:00,37.1,19.2,30.18,West,270,0.7,2.9,48,0.00,,,0.00,WUHU216HW,2013-03-14 23:35:00,
2013-03-14 19:40:00,37.1,19.7,30.18,NNW,338,0.2,0.7,49,0.00,,,0.00,WUHU216HW,2013-03-14 23:40:00,
2013-03-14 19:45:00,37.1,19.7,30.18,WNW,293,0.2,0.4,49,0.00,,,0.00,WUHU216HW,2013-03-14 23:45:00,
2013-03-14 19:50:00,36.9,19.5,30.18,NW,315,0.0,0.4,49,0.00,,,0.00,WUHU216HW,2013-03-14 23:50:00,
2013-03-14 19:55:00,36.9,19.5,30.18,NW,315,0.0,0.2,49,0.00,,,0.00,WUHU216HW,2013-03-14 23:55:00,
2013-03-14 20:00:00,36.7,19.9,30.19,NW,315,0.0,0.0,50,0.00,,,0.00,WUHU216HW,2013-03-15 00:00:00,
2013-03-14 20:05:00,36.7,19.9,30.19,NW,315,0.0,0.0,50,0.00,,,0.00,WUHU216HW,2013-03-15 00:05:00,
2013-03-14 20:10:00,36.5,19.7,30.19,NW,315,0.0,0.0,50,0.00,,,0.00,WUHU216HW,2013-03-15 00:10:00,
2013-03-14 20:15:00,36.4,19.5,30.19,NW,315,0.0,0.0,50,0.00,,,0.00,WUHU216HW,2013-03-15 00:15:00,
2013-03-14 20:20:00,36.4,20.0,30.18,NW,315,0.0,0.0,51,0.00,,,0.00,WUHU216HW,2013-03-15 00:20:00,
2013-03-14 20:25:00,36.4,20.0,30.18,NW,315,0.0,0.0,51,0.00,,,0.00,WUHU216HW,2013-03-15 00:25:00,
2013-03-14 20:30:00,36.2,19.8,30.17,NW,315,0.0,0.0,51,0.00,,,0.00,WUHU216HW,2013-03-15 00:30:00,
2013-03-14 20:35:00,36.0,19.6,30.17,NW,315,0.0,0.0,51,0.00,,,0.00,WUHU216HW,2013-03-15 00:35:00,
2013-03-14 20:40:00,35.8,19.5,30.17,NW,315,0.0,0.0,51,0.00,,,0.00,WUHU216HW,2013-03-15 00:40:00,
2013-03-14 20:45:00,35.6,19.8,30.16,NW,315,0.0,0.0,52,0.00,,,0.00,WUHU216HW,2013-03-15 00:45:00,
2013-03-14 20:50:00,35.6,19.8,30.16,NW,315,0.0,0.0,52,0.00,,,0.00,WUHU216HW,2013-03-15 00:50:00,
2013-03-14 20:55:00,35.5,19.6,30.16,NW,315,0.0,0.0,52,0.00,,,0.00,WUHU216HW,2013-03-15 00:55:00,
2013-03-14 21:00:00,35.5,20.0,30.16,NW,315,0.0,0.0,53,0.00,,,0.00,WUHU216HW,2013-03-15 01:00:00,
2013-03-14 21:05:00,35.5,20.0,30.16,NW,315,0.0,0.0,53,0.00,,,0.00,WUHU216HW,2013-03-15 01:05:00,
2013-03-14 21:10:00,35.3,19.8,30.16,NW,315,0.0,0.0,53,0.00,,,0.00,WUHU216HW,2013-03-15 01:10:00,
2013-03-14 21:15:00,35.1,20.1,30.16,NW,315,0.0,0.0,54,0.00,,,0.00,WUHU216HW,2013-03-15 01:15:00,
2013-03-14 21:20:00,34.7,20.2,30.16,NW,315,0.0,0.0,55,0.00,,,0.00,WUHU216HW,2013-03-15 01:20:00,
2013-03-14 21:25:00,34.6,20.0,30.16,NW,315,0.0,0.0,55,0.00,,,0.00,WUHU216HW,2013-03-15 01:25:00,
2013-03-14 21:30:00,34.4,20.3,30.16,NW,315,0.0,0.0,56,0.00,,,0.00,WUHU216HW,2013-03-15 01:30:00,
2013-03-14 21:35:00,34.2,20.1,30.16,NW,315,0.0,0.0,56,0.00,,,0.00,WUHU216HW,2013-03-15 01:35:00,
2013-03-14 21:40:00,34.0,19.9,30.16,NW,315,0.0,0.0,56,0.00,,,0.00,WUHU216HW,2013-03-15 01:40:00,
2013-03-14 21:45:00,33.8,19.7,30.16,NW,315,0.0,0.0,56,0.00,,,0.00,WUHU216HW,2013-03-15 01:45:00,
2013-03-14 21:50:00,33.8,19.7,30.15,NW,315,0.0,0.0,56,0.00,,,0.00,WUHU216HW,2013-03-15 01:50:00,
2013-03-14 21:55:00,33.8,20.2,30.15,NW,315,0.0,0.0,57,0.00,,,0.00,WUHU216HW,2013-03-15 01:55:00,
2013-03-14 22:00:00,33.8,20.2,30.15,NW,315,0.0,0.0,57,0.00,,,0.00,WUHU216HW,2013-03-15 02:00:00,
2013-03-14 22:05:00,33.8,20.2,30.14,NW,315,0.0,0.0,57,0.00,,,0.00,WUHU216HW,2013-03-15 02:05:00,
2013-03-14 22:10:00,33.8,20.5,30.15,NW,315,0.0,0.0,58,0.00,,,0.00,WUHU216HW,2013-03-15 02:10:00,
2013-03-14 22:15:00,33.8,20.5,30.15,NW,315,0.0,0.0,58,0.00,,,0.00,WUHU216HW,2013-03-15 02:15:00,
2013-03-14 22:20:00,33.7,20.8,30.14,NW,315,0.0,0.0,59,0.00,,,0.00,WUHU216HW,2013-03-15 02:20:00,
2013-03-14 22:25:00,33.5,20.7,30.15,NW,315,0.0,0.0,59,0.00,,,0.00,WUHU216HW,2013-03-15 02:25:00,
2013-03-14 22:30:00,33.3,20.5,30.14,NW,315,0.0,0.0,59,0.00,,,0.00,WUHU216HW,2013-03-15 02:30:00,
2013-03-14 22:35:00,33.1,20.8,30.14,NW,315,0.0,0.0,60,0.00,,,0.00,WUHU216HW,2013-03-15 02:35:00,
2013-03-14 22:40:00,32.9,20.6,30.14,NW,315,0.0,0.0,60,0.00,,,0.00,WUHU216HW,2013-03-15 02:40:00,
2013-03-14 22:45:00,32.9,20.6,30.14,NW,315,0.0,0.0,60,0.00,,,0.00,WUHU216HW,2013-03-15 02:45:00,
2013-03-14 22:50:00,32.8,20.8,30.13,NW,315,0.0,0.0,61,0.00,,,0.00,WUHU216HW,2013-03-15 02:50:00,
2013-03-14 22:55:00,32.8,20.8,30.13,NW,315,0.0,0.0,61,0.00,,,0.00,WUHU216HW,2013-03-15 02:55:00,
2013-03-14 23:00:00,32.8,20.8,30.13,NW,315,0.0,0.0,61,0.00,,,0.00,WUHU216HW,2013-03-15 03:00:00,
2013-03-14 23:05:00,32.8,21.2,30.13,NW,315,0.0,0.0,62,0.00,,,0.00,WUHU216HW,2013-03-15 03:05:00,
2013-03-14 23:10:00,32.4,20.9,30.13,NNW,338,0.0,0.4,62,0.00,,,0.00,WUHU216HW,2013-03-15 03:10:00,
2013-03-14 23:15:00,32.4,20.9,30.14,West,270,0.0,2.0,62,0.00,,,0.00,WUHU216HW,2013-03-15 03:15:00,
2013-03-14 23:20:00,32.4,20.5,30.14,West,270,1.1,2.0,61,0.00,,,0.00,WUHU216HW,2013-03-15 03:20:00,
2013-03-14 23:25:00,32.6,20.6,30.13,West,270,1.1,1.3,61,0.00,,,0.00,WUHU216HW,2013-03-15 03:25:00,
2013-03-14 23:30:00,32.8,20.8,30.14,WSW,248,1.6,1.6,61,0.00,,,0.00,WUHU216HW,2013-03-15 03:30:00,
2013-03-14 23:35:00,32.8,20.4,30.13,West,270,0.7,1.6,60,0.00,,,0.00,WUHU216HW,2013-03-15 03:35:00,
2013-03-14 23:40:00,32.8,20.4,30.13,West,270,0.2,0.7,60,0.00,,,0.00,WUHU216HW,2013-03-15 03:40:00,
2013-03-14 23:45:00,32.6,20.3,30.13,West,270,0.9,0.9,60,0.00,,,0.00,WUHU216HW,2013-03-15 03:45:00,
2013-03-14 23:50:00,32.6,20.3,30.13,NW,315,0.4,0.9,60,0.00,,,0.00,WUHU216HW,2013-03-15 03:50:00,
2013-03-14 23:55:00,32.6,20.3,30.13,SW,225,0.4,1.1,60,0.00,,,0.00,WUHU216HW,2013-03-15 03:55:00,